| time (UTC) | temp C | wind direction | speed KPH | gust KPH | rain 1hr cm | rain 24hr cm | rain mn cm | humidity % | barometer mb |
| 20260510182059 | 16 | 190 | 14.5 | 32.2 | 0.00 | 2.21 | 0.51 | 78 | 1010.4 |
| 20260510181511 | 16 | 190 | 9.7 | 27.4 | 0.00 | 2.21 | 0.51 | 79 | 1010.3 |
| 20260510181020 | 16 | 190 | 12.9 | 27.4 | 0.00 | 2.21 | 0.51 | 79 | 1010.3 |
| 20260510180516 | 16 | 190 | 9.7 | 22.5 | 0.00 | 2.21 | 0.51 | 79 | 1010.4 |
| 20260510180021 | 16 | 190 | 8.0 | 22.5 | 0.00 | 2.21 | 0.51 | 79 | 1010.3 |
| 20260510175524 | 16 | 190 | 6.4 | 35.4 | 0.00 | 2.21 | 0.51 | 79 | 1010.3 |
| 20260510175022 | 16 | 190 | 12.9 | 35.4 | 0.00 | 2.21 | 0.51 | 78 | 1010.3 |
| 20260510174528 | 16 | 190 | 11.3 | 30.6 | 0.00 | 2.21 | 0.51 | 78 | 1010.2 |
| 20260510174025 | 16 | 190 | 9.7 | 29.0 | 0.00 | 2.21 | 0.51 | 77 | 1010.3 |
| 20260510173524 | 16 | 190 | 11.3 | 24.1 | 0.00 | 2.21 | 0.51 | 77 | 1010.4 |
| 20260510173049 | 16 | 190 | 11.3 | 37.0 | 0.00 | 2.21 | 0.51 | 78 | 1010.3 |
| 20260510172526 | 16 | 190 | 4.8 | 30.6 | 0.00 | 2.21 | 0.51 | 79 | 1010.4 |
| 20260510172023 | 16 | 190 | 14.5 | 35.4 | 0.00 | 2.21 | 0.51 | 78 | 1010.3 |
| 20260510171527 | 16 | 190 | 16.1 | 35.4 | 0.00 | 2.21 | 0.51 | 78 | 1010.3 |
| 20260510170534 | 16 | 190 | 6.4 | 32.2 | 0.10 | 2.21 | 0.51 | 79 | 1010.4 |
| 20260510170012 | 16 | 190 | 14.5 | 32.2 | 0.10 | 2.21 | 0.51 | 79 | 1010.4 |
| 20260510165549 | 16 | 190 | 11.3 | 30.6 | 0.10 | 2.21 | 0.51 | 78 | 1010.4 |
| 20260510165052 | 16 | 190 | 12.9 | 29.0 | 0.10 | 2.21 | 0.51 | 78 | 1010.4 |
| 20260510164534 | 16 | 190 | 11.3 | 27.4 | 0.10 | 2.21 | 0.51 | 78 | 1010.3 |
| 20260510164011 | 16 | 190 | 12.9 | 24.1 | 0.10 | 2.49 | 0.51 | 77 | 1010.3 |
| 20260510163517 | 16 | 190 | 8.0 | 29.0 | 0.10 | 2.49 | 0.51 | 78 | 1010.4 |
| 20260510163021 | 16 | 190 | 11.3 | 29.0 | 0.10 | 2.49 | 0.51 | 78 | 1010.2 |
| 20260510162519 | 16 | 190 | 16.1 | 33.8 | 0.10 | 2.49 | 0.51 | 78 | 1010.3 |
| 20260510162017 | 17 | 234 | 17.7 | 33.8 | 0.10 | 2.49 | 0.51 | 78 | 1010.2 |
| 20260510161521 | 16 | 190 | 9.7 | 38.6 | 0.10 | 2.49 | 0.51 | 79 | 1010.2 |
| 20260510161025 | 16 | 190 | 11.3 | 35.4 | 0.10 | 2.39 | 0.48 | 80 | 1010.2 |
| 20260510160524 | 16 | 190 | 14.5 | 40.2 | 0.10 | 2.39 | 0.48 | 80 | 1010.2 |
| 20260510160030 | 16 | 190 | 9.7 | 40.2 | 0.10 | 2.39 | 0.48 | 80 | 1010.2 |
| 20260510155525 | 16 | 190 | 12.9 | 35.4 | 0.10 | 2.39 | 0.48 | 79 | 1010.2 |
| 20260510155021 | 17 | 190 | 16.1 | 40.2 | 0.10 | 2.39 | 0.48 | 77 | 1010.2 |
| 20260510154517 | 17 | 190 | 19.3 | 40.2 | 0.10 | 2.39 | 0.48 | 75 | 1010.1 |
| 20260510154022 | 17 | 203 | 16.1 | 37.0 | 0.10 | 3.81 | 0.48 | 74 | 1010.1 |
| 20260510153016 | 17 | 237 | 12.9 | 41.8 | 0.10 | 3.81 | 0.48 | 75 | 1010.2 |
| 20260510152014 | 17 | 230 | 17.7 | 48.3 | 0.10 | 3.81 | 0.48 | 75 | 1010.3 |
| 20260510151518 | 17 | 190 | 17.7 | 48.3 | 0.10 | 3.81 | 0.48 | 74 | 1010.2 |
| 20260510151043 | 17 | 168 | 14.5 | 29.0 | 0.00 | 3.71 | 0.46 | 75 | 1010.3 |
| 20260510150533 | 17 | 5 | 11.3 | 38.6 | 0.00 | 3.71 | 0.46 | 75 | 1010.3 |
| 20260510150011 | 17 | 190 | 12.9 | 38.6 | 0.00 | 3.71 | 0.46 | 74 | 1010.4 |
| 20260510145548 | 17 | 190 | 16.1 | 41.8 | 0.00 | 3.71 | 0.46 | 74 | 1010.4 |
| 20260510145026 | 17 | 190 | 14.5 | 41.8 | 0.00 | 3.71 | 0.46 | 74 | 1010.2 |
| 20260510144551 | 17 | 208 | 17.7 | 38.6 | 0.00 | 3.71 | 0.46 | 73 | 1010.5 |
| 20260510144028 | 17 | 66 | 17.7 | 38.6 | 0.00 | 3.71 | 0.46 | 73 | 1010.3 |
| 20260510143533 | 17 | 347 | 16.1 | 46.7 | 0.00 | 3.71 | 0.46 | 73 | 1010.3 |
| 20260510143015 | 17 | 190 | 17.7 | 46.7 | 0.00 | 3.71 | 0.46 | 71 | 1010.4 |
| 20260510142521 | 17 | 180 | 16.1 | 41.8 | 0.00 | 3.71 | 0.46 | 72 | 1010.4 |
| 20260510142017 | 17 | 159 | 16.1 | 43.5 | 0.00 | 3.71 | 0.46 | 72 | 1010.4 |
| 20260510141530 | 17 | 245 | 17.7 | 0.0 | 0.00 | 0.00 | 0.46 | 71 | 1010.4 |
| 20260510141022 | 17 | 190 | 20.9 | 43.5 | 0.20 | 3.71 | 0.46 | 71 | 1010.3 |
| 20260510140529 | 17 | 231 | 20.9 | 40.2 | 0.20 | 3.71 | 0.46 | 72 | 1010.6 |
| 20260510135525 | 17 | 190 | 24.1 | 40.2 | 0.20 | 3.71 | 0.46 | 73 | 1010.6 |
| 20260510135016 | 17 | 122 | 16.1 | 40.2 | 0.20 | 3.71 | 0.46 | 73 | 1010.5 |
| 20260510134540 | 17 | 267 | 14.5 | 40.2 | 0.20 | 3.71 | 0.46 | 74 | 1010.5 |
| 20260510134030 | 16 | 202 | 16.1 | 40.2 | 0.20 | 3.71 | 0.46 | 75 | 1010.5 |
| 20260510133529 | 16 | 230 | 12.9 | 32.2 | 0.20 | 3.71 | 0.46 | 76 | 1010.5 |
| 20260510133026 | 16 | 190 | 8.0 | 30.6 | 0.20 | 3.71 | 0.46 | 77 | 1010.5 |
| 20260510132540 | 16 | 190 | 8.0 | 35.4 | 0.20 | 3.71 | 0.46 | 76 | 1010.7 |
| 20260510132039 | 17 | 190 | 16.1 | 40.2 | 0.20 | 3.71 | 0.46 | 73 | 1010.7 |
| 20260510131510 | 17 | 190 | 17.7 | 40.2 | 0.00 | 3.51 | 0.41 | 68 | 1010.5 |
| 20260510131036 | 17 | 221 | 12.9 | 40.2 | 0.00 | 3.51 | 0.41 | 67 | 1010.5 |
| 20260510130522 | 18 | 190 | 20.9 | 40.2 | 0.00 | 3.51 | 0.41 | 67 | 1010.5 |
| 20260510130024 | 17 | 151 | 11.3 | 49.9 | 0.00 | 3.51 | 0.41 | 67 | 1010.5 |
| 20260510125534 | 17 | 190 | 25.7 | 49.9 | 0.00 | 3.51 | 0.41 | 67 | 1010.5 |
| 20260510125025 | 17 | 236 | 12.9 | 33.8 | 0.00 | 3.51 | 0.41 | 68 | 1010.7 |
| 20260510123516 | 17 | 286 | 14.5 | 41.8 | 0.00 | 3.51 | 0.41 | 68 | 1010.7 |
| 20260510123023 | 17 | 251 | 526.3 | 526.3 | 0.00 | 0.00 | 0.41 | 67 | 1010.6 |
| 20260510122518 | 18 | 253 | 16.1 | 41.8 | 0.00 | 3.51 | 0.41 | 67 | 1010.6 |
| 20260510122018 | 17 | 245 | 17.7 | 40.2 | 0.00 | 3.51 | 0.41 | 66 | 1010.6 |
| 20260510121010 | 17 | 190 | 22.5 | 37.0 | 0.00 | 3.51 | 0.41 | 66 | 1010.7 |
| 20260510120516 | 17 | 190 | 16.1 | 35.4 | 0.00 | 3.51 | 0.41 | 67 | 1010.6 |
| 20260510120021 | 17 | 355 | 9.7 | 43.5 | 0.00 | 3.51 | 0.41 | 67 | 1010.7 |
| 20260510115518 | 17 | 170 | 22.5 | 43.5 | 0.00 | 3.51 | 0.41 | 66 | 1010.7 |
| 20260510115015 | 17 | 234 | 19.3 | 38.6 | 0.00 | 3.51 | 0.41 | 66 | 1010.7 |
| 20260510114025 | 17 | 190 | 17.7 | 48.3 | 0.00 | 3.51 | 0.41 | 66 | 1010.7 |
| 20260510113529 | 17 | 190 | 14.5 | 33.8 | 0.00 | 3.51 | 0.41 | 66 | 1010.7 |
| 20260510113013 | 17 | 232 | 17.7 | 40.2 | 0.00 | 3.51 | 0.41 | 66 | 1010.7 |
| 20260510112515 | 17 | 268 | 14.5 | 40.2 | 0.00 | 3.51 | 0.41 | 65 | 1010.8 |
| 20260510112040 | 17 | 207 | 12.9 | 40.2 | 0.00 | 3.51 | 0.41 | 66 | 1010.7 |
| 20260510111543 | 17 | 276 | 20.9 | 37.0 | 0.00 | 3.51 | 0.41 | 65 | 1010.7 |
| 20260510111047 | 17 | 190 | 24.1 | 41.8 | 0.00 | 3.51 | 0.41 | 63 | 1010.7 |
| 20260510110551 | 17 | 105 | 14.5 | 41.8 | 0.00 | 3.51 | 0.41 | 63 | 1010.8 |
| 20260510110055 | 17 | 224 | 9.7 | 35.4 | 0.00 | 3.51 | 0.41 | 63 | 1010.7 |
| 20260510105525 | 17 | 223 | 17.7 | 35.4 | 0.00 | 3.51 | 0.41 | 61 | 1010.7 |
| 20260510105024 | 17 | 190 | 8.0 | 48.3 | 0.00 | 3.51 | 0.41 | 64 | 1010.7 |
| 20260510104529 | 17 | 257 | 12.9 | 48.3 | 0.00 | 3.51 | 0.41 | 64 | 1010.7 |
| 20260510104026 | 17 | 190 | 17.7 | 35.4 | 0.00 | 3.51 | 0.41 | 65 | 1010.6 |
| 20260510103509 | 17 | 283 | 12.9 | 35.4 | 0.00 | 3.51 | 0.41 | 67 | 1010.6 |
| 20260510103035 | 17 | 190 | 16.1 | 35.4 | 0.00 | 3.51 | 0.41 | 66 | 1010.5 |
| 20260510102525 | 17 | 245 | 16.1 | 30.6 | 0.00 | 3.51 | 0.41 | 67 | 1010.5 |
| 20260510102029 | 17 | 235 | 11.3 | 33.8 | 0.00 | 3.51 | 0.41 | 68 | 1010.6 |
| 20260510101527 | 17 | 190 | 16.1 | 33.8 | 0.00 | 3.51 | 0.41 | 67 | 1010.4 |
| 20260510101026 | 16 | 210 | 14.5 | 35.4 | 0.00 | 3.51 | 0.41 | 66 | 1010.5 |
| 20260510100513 | 16 | 201 | 17.7 | 35.4 | 0.00 | 3.51 | 0.41 | 65 | 1010.4 |
| 20260510100018 | 17 | 169 | 11.3 | 38.6 | 0.00 | 3.51 | 0.41 | 67 | 1010.5 |
| 20260510095021 | 17 | 190 | 14.5 | 45.1 | 0.00 | 3.51 | 0.41 | 67 | 1010.5 |
| 20260510094519 | 17 | 206 | 14.5 | 45.1 | 0.00 | 3.51 | 0.41 | 68 | 1010.4 |
| 20260510094017 | 16 | 190 | 12.9 | 35.4 | 0.00 | 3.51 | 0.41 | 68 | 1010.4 |
| 20260510093541 | 16 | 190 | 22.5 | 35.4 | 0.00 | 3.51 | 0.41 | 68 | 1010.3 |
| 20260510093132 | 16 | 190 | 14.5 | 40.2 | 0.00 | 3.51 | 0.41 | 69 | 1010.4 |
| 20260510092515 | 16 | 190 | 14.5 | 40.2 | 0.00 | 3.51 | 0.41 | 67 | 1010.3 |
| 20260510092013 | 16 | 242 | 9.7 | 37.0 | 0.00 | 3.51 | 0.41 | 66 | 1010.3 |
| 20260510091525 | 16 | 190 | 22.5 | 37.0 | 0.00 | 3.51 | 0.41 | 66 | 1010.2 |
| 20260510091023 | 16 | 180 | 11.3 | 32.2 | 0.00 | 3.51 | 0.41 | 67 | 1010.2 |
| 20260510090527 | 16 | 178 | 14.5 | 33.8 | 0.00 | 3.51 | 0.41 | 67 | 1010.2 |
| 20260510090025 | 16 | 288 | 11.3 | 33.8 | 0.00 | 3.51 | 0.41 | 66 | 1010.1 |
| 20260510085521 | 16 | 190 | 8.0 | 38.6 | 0.00 | 3.51 | 0.41 | 67 | 1010.1 |
| 20260510085018 | 16 | 217 | 16.1 | 38.6 | 0.00 | 3.51 | 0.41 | 66 | 1010.1 |
| 20260510084517 | 16 | 190 | 16.1 | 38.6 | 0.00 | 3.51 | 0.41 | 67 | 1010.1 |
| 20260510083529 | 16 | 178 | 8.0 | 33.8 | 0.00 | 3.51 | 0.41 | 68 | 1010.0 |
| 20260510083028 | 16 | 190 | 17.7 | 30.6 | 0.00 | 3.51 | 0.41 | 68 | 1010.0 |
| 20260510082019 | 16 | 190 | 8.0 | 32.2 | 0.00 | 3.51 | 0.41 | 69 | 1010.0 |
| 20260510081524 | 15 | 190 | 17.7 | 27.4 | 0.00 | 3.51 | 0.41 | 69 | 1010.0 |
| 20260510081030 | 15 | 270 | 9.7 | 29.0 | 0.00 | 3.51 | 0.41 | 69 | 1009.9 |
| 20260510080528 | 15 | 261 | 12.9 | 29.0 | 0.00 | 3.51 | 0.41 | 70 | 1010.0 |
| 20260510080018 | 15 | 219 | 14.5 | 29.0 | 0.00 | 3.51 | 0.41 | 72 | 1010.0 |
| 20260510075511 | 15 | 190 | 11.3 | 22.5 | 0.00 | 3.51 | 0.41 | 75 | 1009.9 |
| 20260510075009 | 15 | 190 | 6.4 | 24.1 | 0.00 | 3.51 | 0.41 | 76 | 1009.8 |
| 20260510074536 | 15 | 190 | 9.7 | 27.4 | 0.00 | 3.51 | 0.41 | 76 | 1009.8 |
| 20260510074012 | 15 | 190 | 8.0 | 27.4 | 0.00 | 3.51 | 0.41 | 76 | 1009.8 |
| 20260510073537 | 15 | 190 | 9.7 | 24.1 | 0.00 | 3.51 | 0.41 | 77 | 1009.7 |
| 20260510073035 | 15 | 236 | 8.0 | 24.1 | 0.00 | 3.51 | 0.41 | 78 | 1009.8 |
| 20260510072537 | 15 | 251 | 9.7 | 19.3 | 0.00 | 3.51 | 0.41 | 79 | 1009.7 |
| 20260510072013 | 14 | 218 | 6.4 | 17.7 | 0.00 | 3.51 | 0.41 | 80 | 1009.7 |
| 20260510071540 | 14 | 247 | 6.4 | 17.7 | 0.00 | 3.51 | 0.41 | 81 | 1009.7 |
| 20260510071043 | 13 | 212 | 9.7 | 17.7 | 0.00 | 3.51 | 0.41 | 82 | 1009.7 |
| 20260510070528 | 13 | 229 | 6.4 | 14.5 | 0.00 | 3.51 | 0.41 | 83 | 1009.7 |
| 20260510070026 | 13 | 190 | 4.8 | 14.5 | 0.00 | 3.51 | 0.41 | 83 | 1009.7 |
| 20260510065522 | 13 | 190 | 6.4 | 16.1 | 0.00 | 3.51 | 0.41 | 84 | 1009.6 |
| 20260510065020 | 12 | 190 | 8.0 | 17.7 | 0.10 | 3.51 | 0.41 | 84 | 1009.5 |
| 20260510064525 | 12 | 190 | 3.2 | 17.7 | 0.10 | 3.51 | 0.41 | 84 | 1009.5 |
| 20260510064043 | 12 | 190 | 4.8 | 16.1 | 0.10 | 3.61 | 0.41 | 84 | 1009.4 |
| 20260510063524 | 12 | 190 | 9.7 | 16.1 | 0.10 | 3.61 | 0.41 | 85 | 1009.3 |
| 20260510063009 | 12 | 190 | 6.4 | 11.3 | 0.10 | 3.61 | 0.41 | 84 | 1009.2 |
| 20260510062526 | 12 | 190 | 6.4 | 11.3 | 0.10 | 3.61 | 0.41 | 85 | 1009.3 |
| 20260510061522 | 11 | 190 | 4.8 | 8.0 | 0.10 | 3.61 | 0.41 | 85 | 1009.2 |
| 20260510061026 | 11 | 185 | 4.8 | 8.0 | 0.41 | 3.61 | 0.41 | 85 | 1009.3 |
| 20260510060512 | 11 | 190 | 4.8 | 9.7 | 1.09 | 3.61 | 0.41 | 85 | 1009.2 |
| 20260510060030 | 11 | 199 | 3.2 | 9.7 | 1.19 | 3.61 | 0.41 | 85 | 1009.2 |
| 20260510055526 | 11 | 205 | 4.8 | 8.0 | 1.09 | 3.51 | 0.38 | 85 | 1009.2 |
| 20260510055023 | 11 | 195 | 3.2 | 8.0 | 1.09 | 3.51 | 0.38 | 85 | 1009.2 |
| 20260510054549 | 11 | 185 | 3.2 | 9.7 | 1.09 | 3.51 | 0.38 | 85 | 1009.2 |
| 20260510054025 | 11 | 201 | 4.8 | 9.7 | 1.09 | 4.29 | 0.38 | 84 | 1009.3 |
| 20260510053529 | 11 | 252 | 4.8 | 14.5 | 1.09 | 4.29 | 0.38 | 84 | 1009.4 |
| 20260510052529 | 11 | 261 | 9.7 | 30.6 | 1.09 | 4.29 | 0.38 | 84 | 1009.1 |
| 20260510052034 | 11 | 282 | 14.5 | 33.8 | 1.09 | 4.29 | 0.38 | 84 | 1009.1 |
| 20260510051531 | 12 | 261 | 22.5 | 51.5 | 0.99 | 4.19 | 0.36 | 83 | 1009.4 |
| 20260510051036 | 12 | 245 | 27.4 | 51.5 | 0.79 | 3.99 | 0.30 | 82 | 1009.4 |
| 20260510050514 | 13 | 229 | 3.2 | 11.3 | 0.00 | 3.20 | 0.10 | 83 | 1009.2 |
| 20260510050012 | 13 | 222 | 3.2 | 12.9 | 0.00 | 3.20 | 0.10 | 83 | 1008.8 |
| 20260510045517 | 13 | 190 | 4.8 | 12.9 | 0.00 | 3.20 | 0.10 | 83 | 1008.9 |
| 20260510045022 | 13 | 284 | 4.8 | 12.9 | 0.00 | 3.20 | 0.10 | 84 | 1008.7 |
| 20260510044546 | 13 | 190 | 4.8 | 12.9 | 0.00 | 3.20 | 0.10 | 84 | 1008.7 |
| 20260510044023 | 13 | 185 | 1.6 | 8.0 | 0.00 | 4.50 | 0.10 | 84 | 1008.7 |
| 20260510043521 | 13 | 217 | 4.8 | 9.7 | 0.00 | 4.50 | 0.10 | 83 | 1008.7 |
| 20260510042526 | 12 | 221 | 3.2 | 11.3 | 0.00 | 4.50 | 0.10 | 83 | 1008.7 |
| 20260510042031 | 12 | 185 | 3.2 | 11.3 | 0.00 | 4.50 | 0.10 | 83 | 1008.7 |
| 20260510041529 | 12 | 210 | 3.2 | 9.7 | 0.10 | 4.50 | 0.10 | 83 | 1008.6 |
| 20260510041027 | 12 | 226 | 3.2 | 12.9 | 0.10 | 4.50 | 0.10 | 82 | 1008.6 |
| 20260510040512 | 12 | 226 | 3.2 | 14.5 | 0.10 | 4.50 | 0.10 | 82 | 1008.7 |
| 20260510040030 | 12 | 210 | 1.6 | 17.7 | 0.10 | 4.50 | 0.10 | 82 | 1008.7 |
| 20260510035526 | 12 | 201 | 4.8 | 17.7 | 0.20 | 4.50 | 0.10 | 82 | 1008.6 |
| 20260510035023 | 12 | 334 | 3.2 | 12.9 | 0.20 | 4.50 | 0.10 | 82 | 1008.6 |
| 20260510034029 | 12 | 223 | 4.8 | 14.5 | 0.20 | 4.60 | 0.10 | 82 | 1008.5 |
| 20260510033527 | 12 | 239 | 3.2 | 24.1 | 0.20 | 4.60 | 0.10 | 82 | 1008.6 |
| 20260510032551 | 13 | 233 | 11.3 | 25.7 | 0.20 | 4.60 | 0.10 | 81 | 1008.7 |
| 20260510032034 | 13 | 243 | 9.7 | 22.5 | 0.10 | 4.50 | 0.08 | 80 | 1008.6 |
| 20260510031512 | 13 | 256 | 14.5 | 35.4 | 0.20 | 4.50 | 0.08 | 79 | 1008.7 |
| 20260510031017 | 13 | 228 | 12.9 | 46.7 | 0.20 | 4.50 | 0.08 | 78 | 1008.6 |
| 20260510030523 | 13 | 253 | 35.4 | 46.7 | 0.20 | 4.50 | 0.08 | 77 | 1008.6 |
| 20260510030021 | 13 | 261 | 22.5 | 45.1 | 0.20 | 4.50 | 0.08 | 80 | 1008.7 |
| 20260510025537 | 14 | 251 | 4.8 | 17.7 | 0.10 | 4.39 | 0.05 | 82 | 1008.4 |
| 20260510025015 | 14 | 251 | 4.8 | 16.1 | 0.10 | 4.39 | 0.05 | 83 | 1008.3 |
| 20260510024512 | 14 | 220 | 4.8 | 20.9 | 0.10 | 4.39 | 0.05 | 83 | 1008.3 |
| 20260510024016 | 13 | 219 | 6.4 | 20.9 | 0.10 | 4.50 | 0.05 | 83 | 1008.2 |
| 20260510023514 | 13 | 200 | 4.8 | 9.7 | 0.10 | 4.50 | 0.05 | 83 | 1008.2 |
| 20260510023020 | 13 | 226 | 4.8 | 9.7 | 0.10 | 4.50 | 0.05 | 83 | 1008.3 |
| 20260510022528 | 13 | 195 | 3.2 | 16.1 | 0.10 | 4.50 | 0.05 | 83 | 1008.3 |
| 20260510022033 | 13 | 207 | 8.0 | 16.1 | 0.10 | 4.50 | 0.05 | 83 | 1008.3 |
| 20260510021522 | 13 | 224 | 4.8 | 11.3 | 0.00 | 4.39 | 0.03 | 83 | 1008.4 |
| 20260510021026 | 13 | 221 | 4.8 | 11.3 | 0.00 | 4.39 | 0.03 | 83 | 1008.4 |
| 20260510020544 | 13 | 204 | 3.2 | 12.9 | 0.00 | 4.39 | 0.03 | 83 | 1008.5 |
| 20260510020028 | 13 | 218 | 3.2 | 12.9 | 0.00 | 4.39 | 0.03 | 83 | 1008.5 |
| 20260510015525 | 13 | 298 | 3.2 | 14.5 | 0.00 | 4.39 | 0.03 | 83 | 1008.5 |
| 20260510015030 | 13 | 161 | 6.4 | 14.5 | 0.00 | 4.39 | 0.03 | 83 | 1008.5 |
| 20260510014529 | 13 | 199 | 6.4 | 16.1 | 0.00 | 4.39 | 0.03 | 83 | 1008.6 |
| 20260510014026 | 13 | 207 | 6.4 | 17.7 | 0.00 | 7.11 | 0.03 | 83 | 1008.6 |
| 20260510013512 | 13 | 209 | 4.8 | 17.7 | 0.00 | 7.11 | 0.03 | 83 | 1008.7 |
| 20260510013043 | 13 | 165 | 8.0 | 14.5 | 0.00 | 7.11 | 0.03 | 83 | 1008.8 |
| 20260510012518 | 13 | 185 | 8.0 | 12.9 | 0.00 | 7.11 | 0.03 | 83 | 1008.8 |
| 20260510012017 | 13 | 232 | 6.4 | 12.9 | 0.00 | 7.11 | 0.03 | 83 | 1008.8 |
| 20260510011534 | 13 | 195 | 6.4 | 14.5 | 0.00 | 7.11 | 0.03 | 83 | 1008.8 |
| 20260510011012 | 13 | 207 | 6.4 | 12.9 | 0.00 | 7.11 | 0.03 | 83 | 1008.9 |
| 20260510010515 | 13 | 195 | 4.8 | 11.3 | 0.00 | 7.11 | 0.03 | 82 | 1009.0 |
| 20260510010013 | 13 | 205 | 6.4 | 12.9 | 0.00 | 7.11 | 0.03 | 82 | 1009.1 |
| 20260510005537 | 13 | 151 | 6.4 | 12.9 | 0.00 | 7.11 | 0.03 | 82 | 1009.1 |
| 20260510005035 | 13 | 213 | 4.8 | 9.7 | 0.00 | 7.11 | 0.03 | 82 | 1009.2 |
| 20260510004512 | 13 | 199 | 4.8 | 12.9 | 0.00 | 7.11 | 0.03 | 81 | 1009.4 |
| 20260510004037 | 13 | 216 | 3.2 | 12.9 | 0.00 | 9.09 | 0.03 | 81 | 1009.4 |
| 20260510003016 | 13 | 185 | 6.4 | 24.1 | 0.10 | 9.09 | 0.03 | 80 | 1009.3 |
| 20260510002512 | 13 | 195 | 16.1 | 24.1 | 0.10 | 9.09 | 0.03 | 79 | 1009.3 |
| 20260510002037 | 13 | 201 | 8.0 | 17.7 | 0.10 | 9.09 | 0.03 | 78 | 1009.6 |
| 20260510001515 | 13 | 229 | 6.4 | 16.1 | 0.10 | 9.09 | 0.03 | 79 | 1009.5 |
| 20260510001013 | 13 | 280 | 8.0 | 19.3 | 0.10 | 9.09 | 0.03 | 79 | 1009.5 |
| 20260510000537 | 13 | 190 | 8.0 | 20.9 | 0.10 | 9.09 | 0.03 | 79 | 1009.5 |
| 20260510000014 | 13 | 190 | 8.0 | 20.9 | 0.10 | 9.09 | 0.03 | 79 | 1009.6 |
| 20260509235527 | 13 | 218 | 6.4 | 14.5 | 0.10 | 9.09 | 0.03 | 79 | 1009.6 |
| 20260509235013 | 13 | 199 | 6.4 | 14.5 | 0.10 | 9.09 | 0.03 | 80 | 1009.5 |
| 20260509234030 | 14 | 157 | 4.8 | 20.9 | 0.10 | 9.09 | 0.03 | 80 | 1009.6 |
| 20260509233535 | 15 | 201 | 9.7 | 20.9 | 0.10 | 9.09 | 0.03 | 80 | 1009.5 |
| 20260509233026 | 15 | 190 | 6.4 | 14.5 | 0.00 | 8.99 | 0.00 | 80 | 1009.7 |
| 20260509232515 | 15 | 190 | 6.4 | 14.5 | 0.00 | 8.99 | 0.00 | 80 | 1009.5 |
| 20260509232021 | 15 | 190 | 3.2 | 14.5 | 0.00 | 8.99 | 0.00 | 80 | 1009.6 |
| 20260509231544 | 15 | 190 | 8.0 | 20.9 | 0.00 | 8.99 | 0.00 | 79 | 1009.6 |
| 20260509231036 | 15 | 190 | 11.3 | 20.9 | 0.00 | 8.99 | 0.00 | 79 | 1009.6 |
| 20260509230520 | 15 | 190 | 6.4 | 14.5 | 0.00 | 8.99 | 0.00 | 78 | 1009.6 |
| 20260509230025 | 15 | 190 | 8.0 | 22.5 | 0.00 | 8.99 | 0.00 | 78 | 1009.7 |
| 20260509225521 | 15 | 190 | 6.4 | 22.5 | 0.00 | 8.99 | 0.00 | 78 | 1009.6 |
| 20260509225019 | 15 | 190 | 3.2 | 19.3 | 0.00 | 8.99 | 0.00 | 77 | 1009.6 |
| 20260509224523 | 15 | 190 | 6.4 | 19.3 | 0.00 | 8.99 | 0.00 | 78 | 1009.6 |
| 20260509224026 | 15 | 190 | 8.0 | 16.1 | 0.00 | 8.99 | 2.29 | 78 | 1009.7 |
| 20260509223511 | 15 | 190 | 8.0 | 19.3 | 0.00 | 8.99 | 2.29 | 79 | 1009.6 |
| 20260509223020 | 15 | 190 | 8.0 | 20.9 | 0.00 | 8.99 | 2.29 | 80 | 1009.7 |
| 20260509222050 | 15 | 190 | 3.2 | 22.5 | 0.00 | 8.99 | 2.29 | 80 | 1009.6 |
| 20260509221514 | 15 | 190 | 6.4 | 19.3 | 0.00 | 8.99 | 2.29 | 81 | 1009.5 |
| 20260509221012 | 15 | 190 | 8.0 | 22.5 | 0.00 | 8.99 | 2.29 | 81 | 1009.4 |
| 20260509220518 | 15 | 190 | 8.0 | 24.1 | 0.00 | 8.99 | 2.29 | 81 | 1009.4 |
| 20260509220037 | 15 | 190 | 8.0 | 25.7 | 0.00 | 8.99 | 2.29 | 81 | 1009.5 |
| 20260509215531 | 15 | 190 | 8.0 | 25.7 | 0.00 | 8.99 | 2.29 | 80 | 1009.5 |
| 20260509215018 | 15 | 190 | 8.0 | 29.0 | 0.00 | 8.99 | 2.29 | 80 | 1009.4 |
| 20260509214516 | 15 | 190 | 8.0 | 29.0 | 0.00 | 8.99 | 2.29 | 81 | 1009.5 |
| 20260509214014 | 15 | 190 | 4.8 | 22.5 | 0.10 | 8.99 | 2.29 | 82 | 1009.4 |
| 20260509213540 | 15 | 190 | 8.0 | 22.5 | 0.20 | 8.99 | 2.29 | 82 | 1009.3 |
| 20260509213019 | 15 | 190 | 4.8 | 19.3 | 0.20 | 8.99 | 2.29 | 82 | 1009.3 |
| 20260509212512 | 15 | 190 | 6.4 | 19.3 | 0.20 | 8.99 | 2.29 | 82 | 1009.1 |
| 20260509212038 | 15 | 190 | 4.8 | 16.1 | 0.20 | 8.99 | 2.29 | 82 | 1009.1 |
| 20260509211516 | 15 | 190 | 3.2 | 24.1 | 0.20 | 8.99 | 2.29 | 82 | 1009.1 |
| 20260509211013 | 15 | 190 | 11.3 | 20.9 | 0.20 | 8.99 | 2.29 | 83 | 1009.1 |
| 20260509210519 | 15 | 190 | 6.4 | 16.1 | 0.20 | 8.99 | 2.29 | 83 | 1009.0 |
| 20260509210017 | 15 | 190 | 6.4 | 24.1 | 0.20 | 8.99 | 2.29 | 83 | 1009.1 |
| 20260509205534 | 15 | 190 | 9.7 | 24.1 | 0.20 | 8.99 | 2.29 | 83 | 1009.0 |
| 20260509205027 | 15 | 190 | 4.8 | 9.7 | 0.20 | 8.99 | 2.29 | 82 | 1008.9 |
| 20260509204538 | 15 | 190 | 8.0 | 0.0 | 0.00 | 0.00 | 2.29 | 82 | 1008.7 |
| 20260509204012 | 15 | 190 | 6.4 | 20.9 | 0.00 | 8.89 | 2.24 | 82 | 1008.8 |
| 20260509203518 | 15 | 190 | 11.3 | 20.9 | 0.00 | 8.89 | 2.24 | 82 | 1008.6 |
| 20260509203016 | 15 | 190 | 8.0 | 20.9 | 0.00 | 8.89 | 2.24 | 82 | 1008.7 |
| 20260509202532 | 15 | 190 | 9.7 | 20.9 | 0.00 | 8.89 | 2.24 | 81 | 1008.6 |
| 20260509202038 | 15 | 190 | 6.4 | 17.7 | 0.00 | 8.89 | 2.24 | 81 | 1008.6 |
| 20260509201522 | 15 | 190 | 8.0 | 16.1 | 0.00 | 8.89 | 2.24 | 81 | 1008.6 |
| 20260509201019 | 15 | 190 | 4.8 | 16.1 | 0.00 | 8.89 | 2.24 | 81 | 1008.6 |
| 20260509200545 | 15 | 190 | 4.8 | 20.9 | 0.00 | 8.89 | 2.24 | 81 | 1008.5 |
| 20260509200021 | 15 | 190 | 3.2 | 17.7 | 0.00 | 8.89 | 2.24 | 81 | 1008.5 |
| 20260509195517 | 15 | 190 | 8.0 | 17.7 | 0.00 | 8.89 | 2.24 | 80 | 1008.4 |
| 20260509195123 | 15 | 190 | 6.4 | 17.7 | 0.00 | 8.89 | 2.24 | 80 | 1008.4 |
| 20260509194021 | 15 | 190 | 8.0 | 19.3 | 0.00 | 8.89 | 2.24 | 80 | 1008.3 |
| 20260509193519 | 15 | 190 | 9.7 | 19.3 | 0.00 | 8.89 | 2.24 | 79 | 1008.1 |
| 20260509193043 | 15 | 190 | 4.8 | 19.3 | 0.00 | 8.89 | 2.24 | 79 | 1008.2 |
| 20260509192518 | 15 | 190 | 6.4 | 20.9 | 0.00 | 8.89 | 2.24 | 79 | 1008.2 |
| 20260509192042 | 15 | 190 | 6.4 | 19.3 | 0.00 | 8.89 | 2.24 | 78 | 1008.2 |
| 20260509191540 | 16 | 190 | 6.4 | 22.5 | 0.00 | 8.89 | 2.24 | 78 | 1008.2 |
| 20260509191023 | 16 | 190 | 8.0 | 25.7 | 0.00 | 8.89 | 2.24 | 77 | 1008.1 |
| 20260509190521 | 16 | 190 | 11.3 | 25.7 | 0.00 | 8.89 | 2.24 | 77 | 1008.1 |
| 20260509190025 | 16 | 190 | 8.0 | 20.9 | 0.00 | 8.89 | 2.24 | 77 | 1008.0 |
| 20260509185027 | 16 | 190 | 9.7 | 22.5 | 0.00 | 8.89 | 2.24 | 76 | 1008.0 |
| 20260509184524 | 16 | 190 | 6.4 | 27.4 | 0.00 | 8.89 | 2.24 | 76 | 1007.8 |
| 20260509184022 | 16 | 190 | 11.3 | 24.1 | 0.00 | 8.89 | 2.24 | 76 | 1007.7 |
| 20260509183516 | 16 | 190 | 8.0 | 24.1 | 0.00 | 8.89 | 2.24 | 76 | 1007.5 |
| 20260509182512 | 16 | 222 | 12.9 | 27.4 | 0.00 | 8.89 | 2.24 | 77 | 1007.5 |